Miscellaneous Local Product
Issued by NWS Hastings, NE

Home | Current Version | Previous Version | Text Only | Print | Product List | Glossary On
Versions: 1 2 3 4 5 6 7 8 9 10 11 12 13 14 15 16 17 18 19 20 21 22 23 24 25 26 27 28 29 30 31 32 33 34 35 36 37 38 39 40 41 42 43 44 45 46 47 48 49 50
000
AXUS43 KGID 020202
MISGRI

GID CWA HOURLY WEATHER ROUNDUP
NATIONAL WEATHER SERVICE HASTINGS NE
800 PM CST SUN MAR 01 2015

NOTE: "FAIR" INDICATES FEW OR NO CLOUDS BELOW 12,000 FEET WITH NO
SIGNIFICANT WEATHER AND/OR OBSTRUCTIONS TO VISIBILITY.

...SOUTH CENTRAL NEBRASKA...

CITY           SKY/WX    TMP DP  RH WIND       PRES   REMARKS
GRAND ISLAND   CLEAR     25  13  60 CALM      30.38R
HASTINGS       PTCLDY    30  12  47 CALM      30.37R
KEARNEY        PTCLDY    27   9  46 E5        30.36R WCI  21
ORD            CLEAR     24   7  48 N5        30.36R WCI  18
YORK           PTCLDY    27  14  59 N3        30.38R
AURORA         PTCLDY    28  12  50 N3        30.38R
LEXINGTON      PTCLDY    29  11  47 CALM      30.34R
HOLDREGE       PTCLDY    30   9  41 SE3       30.35R
HEBRON         MOCLDY    29  16  57 CALM      30.40R

...NEBRASKA PANHANDLE...

CITY           SKY/WX    TMP DP  RH WIND       PRES   REMARKS
CHADRON        PTCLDY    25   7  46 NW5       30.29R WCI  19
ALLIANCE       PTCLDY    24  11  57 NE6       30.26R WCI  17
SCOTTSBLUFF    PTCLDY    28  12  51 S5        30.25S WCI  23
SIDNEY         MOCLDY    26  16  65 S3        30.27R

...WESTERN AND NORTH CENTRAL NEBRASKA...

CITY           SKY/WX    TMP DP  RH WIND       PRES   REMARKS
VALENTINE      PTCLDY    25   8  48 N8        30.34R WCI  16
AINSWORTH      PTCLDY    19   8  62 N6        30.35R WCI  11
ONEILL         PTCLDY    23   6  49 NW8       30.38R WCI  14
BROKEN BOW     CLEAR     22   7  52 N7        30.34R WCI  13
IMPERIAL         N/A     27  12  53 CALM      30.31R
NORTH PLATTE   CLEAR     22   9  57 CALM      30.32R
MCCOOK         CLOUDY    33  10  38 SE5       30.33S WCI  29

...EASTERN NEBRASKA...

CITY           SKY/WX    TMP DP  RH WIND       PRES   REMARKS
NORFOLK        PTCLDY    28   9  44 NW3       30.38R
SO SIOUX CITY  CLEAR     29  13  51 N9        30.40R WCI  20
TEKAMAH        CLEAR     26  14  60 NW8       30.40R WCI  18
COLUMBUS       CLEAR     25   7  46 CALM      30.40R
ALBION         PTCLDY    25   7  46 CALM      30.38R
OMAHA EPPLEY   PTCLDY    30  18  60 N3        30.40R
OFFUTT AFB     CLEAR     23  16  73 NW2       30.39S
MILLARD        FAIR      31  17  56 CALM      30.40R
LINCOLN        PTCLDY    31  16  54 CALM      30.41R
NEBRASKA CITY  PTCLDY    32  12  43 SW3       30.39F
BEATRICE       MOCLDY    28  17  64 CALM      30.40R
FALLS CITY     CLOUDY    31  17  56 CALM      30.42R

...NORTHERN KANSAS...

CITY           SKY/WX    TMP DP  RH WIND       PRES   REMARKS
GOODLAND       CLOUDY    30  22  72 SE3       30.31R
HILL CITY      MOCLDY    31  20  63 S5        30.37R WCI  26
NORTON         CLEAR     34  10  37 CALM      30.35R
PHILLIPSBURG   CLEAR     34  18  51 CALM      30.38R
SMITH CENTER   CLEAR     28  16  59 NE7       30.39S WCI  21
BELOIT         CLEAR     30  21  69 CALM      30.40R
HAYS           MOCLDY    27  14  59 W6        30.39R WCI  20
RUSSELL        PTCLDY    28  20  71 SE6       30.38R WCI  22
CONCORDIA      MOCLDY    28  20  71 SW6       30.41R WCI  22
SALINA         FAIR      28  20  71 CALM      30.42R
TOPEKA         CLEAR     27  20  75 CALM      30.45R



USA.gov is the U.S. government's official web portal to all federal, state and local government web resources and services.